Overview Statistics Trail Chart Weather Telemetry Raw packets
 

This is the latest recevied weather packets stored in our database for station/object W0AKY-13. If no packets are shown the sender has not sent any weather packets the latest 10 day(s).

<< 1 2 3 4 5 >>
Time Temp. Humidity Pressure Rain* Wind** Luminosity Snow
1788653938 32.22° C 61% 1014 hPa 0 mm - 11 W/m² -
1788653634 32.78° C 60% 1014.2 hPa 0 mm - 13 W/m² -
1788653333 32.78° C 59% 1013.9 hPa 0 mm - 15 W/m² -
1788653034 32.78° C 58% 1013.9 hPa 0 mm - 16 W/m² -
1788652729 32.78° C 57% 1013.9 hPa 0 mm - 18 W/m² -
1788652423 33.33° C 58% 1014 hPa 0 mm - 19 W/m² -
1788652118 33.89° C 56% 1014.1 hPa 0 mm - 21 W/m² -
1788651814 33.89° C 56% 1014 hPa 0 mm - 22 W/m² -
1788651509 33.89° C 55% 1014 hPa 0 mm - 23 W/m² -
1788651204 34.44° C 54% 1014 hPa 0 mm - 25 W/m² -
1788650902 34.44° C 52% 1014 hPa 0 mm - 27 W/m² -
1788650599 35° C 50% 1014 hPa 0 mm - 28 W/m² -
1788650295 35° C 51% 1013.8 hPa 0 mm - 30 W/m² -
1788649989 35.56° C 52% 1013.8 hPa 0 mm - 34 W/m² -
1788649686 35.56° C 47% 1013.8 hPa 0 mm - 35 W/m² -
1788649383 36.11° C 49% 1013.9 hPa 0 mm - 54 W/m² -
1788649083 36.67° C 47% 1013.8 hPa 0 mm - 124 W/m² -
1788648778 36.67° C 45% 1013.9 hPa 0 mm - 136 W/m² -
1788648478 37.22° C 46% 1013.9 hPa 0 mm - 145 W/m² -
1788648174 37.22° C 45% 1014 hPa 0 mm - 156 W/m² -
1788647869 37.78° C 45% 1013.8 hPa 0 mm - 167 W/m² -
1788647566 37.22° C 47% 1013.9 hPa 0 mm - 176 W/m² -
1788647261 36.67° C 49% 1013.7 hPa 0 mm - 189 W/m² -
1788646960 36.67° C 60% 1013.7 hPa 0 mm - 196 W/m² -
1788646656 36.67° C 59% 1013.6 hPa 0 mm - 208 W/m² -

* Rain latest hour (hover to see other rain measurements)
** Current wind speed in m/s (hover to see current wind gust speed)